ROU2024 CYVR-CYYC

Flight info

Callsign ROU2024
Flight time 1h 1m
Altitude 39000
Route DAPED DCT PETLI DCT MENBO Q983 NORET IGVEP7
Aircraft A320/M-SDE3FGHIRWY/LB1

Departure

Time 2026-05-05 23:15
Airport Vancouver International Airport (CYVR)

Arrival

Time 2026-05-06 00:16
Airport Calgary International Airport (CYYC)
Time Latitude Longitude Altitude Speed Heading
2026-05-05 22:37 49.19607 -123.18604 9 ft 0 kts 107°
2026-05-05 23:08 49.19608 -123.18609 25 ft 3 kts 107°
2026-05-05 23:08 49.19616 -123.18647 26 ft 2 kts 107°
2026-05-05 23:08 49.19623 -123.18678 26 ft 4 kts 127°
2026-05-05 23:09 49.19640 -123.18692 29 ft 3 kts 190°
2026-05-05 23:09 49.19655 -123.18688 28 ft 0 kts 190°
2026-05-05 23:11 49.19649 -123.18689 26 ft 4 kts 190°
2026-05-05 23:11 49.19601 -123.18702 26 ft 11 kts 190°
2026-05-05 23:11 49.19509 -123.18728 27 ft 15 kts 190°
2026-05-05 23:12 49.19410 -123.18760 27 ft 14 kts 210°
2026-05-05 23:12 49.19372 -123.18924 25 ft 23 kts 260°
2026-05-05 23:12 49.19335 -123.19212 26 ft 30 kts 257°
2026-05-05 23:12 49.19294 -123.19536 28 ft 31 kts 258°
2026-05-05 23:13 49.19252 -123.19868 25 ft 32 kts 258°
2026-05-05 23:13 49.19220 -123.20147 28 ft 20 kts 259°
2026-05-05 23:13 49.19192 -123.20354 26 ft 17 kts 250°
2026-05-05 23:13 49.19096 -123.20436 26 ft 18 kts 191°
2026-05-05 23:14 49.18987 -123.20433 27 ft 14 kts 143°
2026-05-05 23:14 49.18958 -123.20311 25 ft 12 kts 100°
2026-05-05 23:14 49.18933 -123.20110 27 ft 42 kts 101°
2026-05-05 23:14 49.18841 -123.19302 25 ft 109 kts 100°
2026-05-05 23:15 49.18680 -123.17892 37 ft 160 kts 103°
2026-05-05 23:15 49.18484 -123.16292 542 ft 166 kts 103°
2026-05-05 23:15 49.18275 -123.14532 1398 ft 169 kts 101°
2026-05-05 23:15 49.18050 -123.12630 1782 ft 193 kts 101°
2026-05-05 23:16 49.17801 -123.10490 2166 ft 218 kts 100°
2026-05-05 23:16 49.17558 -123.08059 2587 ft 246 kts 99°
2026-05-05 23:16 49.17271 -123.05325 3136 ft 268 kts 100°
2026-05-05 23:16 49.16947 -123.02496 4022 ft 273 kts 100°
2026-05-05 23:17 49.16705 -122.99570 4975 ft 278 kts 91°
2026-05-05 23:17 49.16673 -122.96620 5950 ft 279 kts 89°
2026-05-05 23:17 49.16676 -122.93631 6877 ft 284 kts 89°
2026-05-05 23:17 49.16670 -122.90598 7704 ft 289 kts 89°
2026-05-05 23:18 49.16652 -122.87523 8729 ft 289 kts 89°
2026-05-05 23:18 49.16616 -122.84451 9640 ft 292 kts 89°
2026-05-05 23:18 49.16575 -122.81302 10407 ft 303 kts 89°
2026-05-05 23:18 49.16535 -122.77975 10765 ft 324 kts 89°
2026-05-05 23:19 49.16494 -122.74467 11419 ft 334 kts 89°
2026-05-05 23:19 49.16449 -122.70854 12195 ft 340 kts 88°
2026-05-05 23:19 49.16404 -122.67209 12962 ft 345 kts 88°
2026-05-05 23:19 49.16356 -122.63514 13744 ft 350 kts 88°
2026-05-05 23:20 49.16308 -122.59762 14456 ft 355 kts 88°
2026-05-05 23:20 49.16259 -122.55973 15145 ft 359 kts 88°
2026-05-05 23:20 49.16211 -122.52142 15840 ft 363 kts 88°
2026-05-05 23:20 49.16172 -122.48274 16550 ft 366 kts 85°
2026-05-05 23:21 49.16566 -122.44491 17217 ft 363 kts 69°
2026-05-05 23:21 49.17377 -122.40794 17905 ft 366 kts 67°
2026-05-05 23:21 49.18211 -122.37101 18538 ft 369 kts 67°
2026-05-05 23:21 49.19060 -122.33391 19141 ft 372 kts 66°
2026-05-05 23:22 49.19916 -122.29639 19737 ft 374 kts 66°
2026-05-05 23:22 49.20767 -122.25889 20330 ft 377 kts 66°
2026-05-05 23:22 49.21631 -122.22056 20932 ft 380 kts 66°
2026-05-05 23:22 49.22222 -122.19418 21354 ft 382 kts 66°
2026-05-05 23:23 49.23082 -122.15559 21947 ft 385 kts 66°
2026-05-05 23:23 49.23947 -122.11669 22493 ft 388 kts 66°
2026-05-05 23:23 49.24820 -122.07749 23080 ft 391 kts 66°
2026-05-05 23:23 49.25710 -122.03754 23637 ft 394 kts 65°
2026-05-05 23:24 49.26614 -121.99712 23836 ft 404 kts 66°
2026-05-05 23:24 49.27543 -121.95556 23944 ft 416 kts 66°
2026-05-05 23:24 49.28489 -121.91305 24197 ft 422 kts 66°
2026-05-05 23:24 49.29425 -121.87058 24550 ft 425 kts 66°
2026-05-05 23:25 49.30373 -121.82735 24906 ft 428 kts 66°
2026-05-05 23:25 49.31324 -121.78399 25263 ft 431 kts 66°
2026-05-05 23:25 49.32281 -121.74033 25626 ft 433 kts 66°
2026-05-05 23:25 49.33244 -121.69644 26007 ft 435 kts 66°
2026-05-05 23:26 49.34209 -121.65230 26369 ft 438 kts 66°
2026-05-05 23:26 49.35172 -121.60795 26710 ft 440 kts 66°
2026-05-05 23:26 49.36138 -121.56339 27039 ft 442 kts 66°
2026-05-05 23:26 49.37123 -121.51798 27390 ft 444 kts 66°
2026-05-05 23:27 49.38103 -121.47276 27715 ft 446 kts 66°
2026-05-05 23:27 49.39081 -121.42745 28019 ft 448 kts 66°
2026-05-05 23:27 49.40058 -121.38208 28319 ft 450 kts 66°
2026-05-05 23:27 49.41045 -121.33617 28562 ft 452 kts 66°
2026-05-05 23:28 49.42033 -121.29021 28868 ft 454 kts 66°
2026-05-05 23:28 49.43023 -121.24410 29148 ft 456 kts 66°
2026-05-05 23:28 49.44014 -121.19785 29373 ft 458 kts 66°
2026-05-05 23:28 49.45011 -121.15123 29671 ft 459 kts 66°
2026-05-05 23:29 49.46001 -121.10468 30046 ft 459 kts 66°
2026-05-05 23:29 49.46986 -121.05811 30372 ft 457 kts 66°
2026-05-05 23:29 49.47970 -121.01148 30672 ft 456 kts 66°
2026-05-05 23:29 49.48946 -120.96520 31001 ft 454 kts 66°
2026-05-05 23:30 49.49928 -120.91861 31303 ft 453 kts 66°
2026-05-05 23:30 49.50898 -120.87254 31622 ft 452 kts 66°
2026-05-05 23:30 49.51863 -120.82670 31902 ft 451 kts 65°
2026-05-05 23:30 49.52827 -120.78072 32231 ft 450 kts 65°
2026-05-05 23:31 49.53782 -120.73499 32583 ft 448 kts 65°
2026-05-05 23:31 49.54730 -120.68943 32918 ft 447 kts 65°
2026-05-05 23:31 49.55675 -120.64385 33222 ft 446 kts 65°
2026-05-05 23:31 49.56618 -120.59833 33539 ft 445 kts 65°
2026-05-05 23:32 49.57557 -120.55295 33866 ft 444 kts 65°
2026-05-05 23:32 49.58490 -120.50783 34154 ft 442 kts 65°
2026-05-05 23:32 49.59433 -120.46207 34439 ft 442 kts 65°
2026-05-05 23:32 49.60361 -120.41690 34703 ft 441 kts 65°
2026-05-05 23:33 49.61281 -120.37209 34967 ft 440 kts 65°
2026-05-05 23:33 49.62209 -120.32685 35224 ft 440 kts 65°
2026-05-05 23:33 49.63123 -120.28212 35475 ft 439 kts 65°
2026-05-05 23:33 49.64053 -120.23648 35723 ft 439 kts 65°
2026-05-05 23:34 49.64960 -120.19175 35975 ft 438 kts 65°
2026-05-05 23:34 49.65870 -120.14676 36205 ft 438 kts 65°
2026-05-05 23:34 49.66791 -120.10121 36397 ft 437 kts 64°
2026-05-05 23:34 49.67684 -120.05707 36623 ft 437 kts 64°
2026-05-05 23:35 49.68588 -120.01229 36839 ft 436 kts 64°
2026-05-05 23:35 49.69501 -119.96695 37065 ft 436 kts 64°
2026-05-05 23:35 49.70396 -119.92232 37248 ft 436 kts 64°
2026-05-05 23:35 49.71293 -119.87751 37446 ft 435 kts 64°
2026-05-05 23:36 49.72186 -119.83284 37658 ft 435 kts 64°
2026-05-05 23:36 49.73069 -119.78852 37849 ft 435 kts 64°
2026-05-05 23:36 49.73962 -119.74364 38028 ft 434 kts 64°
2026-05-05 23:36 49.74848 -119.69908 38219 ft 434 kts 64°
2026-05-05 23:37 49.75728 -119.65461 38421 ft 433 kts 64°
2026-05-05 23:37 49.76604 -119.61010 38618 ft 433 kts 64°
2026-05-05 23:37 49.77481 -119.56534 38770 ft 433 kts 64°
2026-05-05 23:37 49.78364 -119.52020 38898 ft 433 kts 64°
2026-05-05 23:38 49.80115 -119.43087 38931 ft 438 kts 64°
2026-05-05 23:38 49.81890 -119.33998 38927 ft 441 kts 64°
2026-05-05 23:39 49.83661 -119.24888 38931 ft 442 kts 64°
2026-05-05 23:39 49.85421 -119.15768 38934 ft 442 kts 64°
2026-05-05 23:40 49.87168 -119.06639 38946 ft 443 kts 65°
2026-05-05 23:40 49.88914 -118.97486 38955 ft 442 kts 64°
2026-05-05 23:41 49.90657 -118.88327 38965 ft 443 kts 64°
2026-05-05 23:41 49.92401 -118.79166 38977 ft 443 kts 64°
2026-05-05 23:42 49.94146 -118.69910 38983 ft 445 kts 65°
2026-05-05 23:42 49.95863 -118.60698 38981 ft 444 kts 65°
2026-05-05 23:43 49.97576 -118.51483 38980 ft 444 kts 65°
2026-05-05 23:43 49.99287 -118.42282 38953 ft 444 kts 65°
2026-05-05 23:44 50.00997 -118.33049 38958 ft 444 kts 65°
2026-05-05 23:44 50.02690 -118.23827 38968 ft 444 kts 66°
2026-05-05 23:45 50.04109 -118.16074 38984 ft 445 kts 66°
2026-05-05 23:45 50.05798 -118.06765 38957 ft 443 kts 66°
2026-05-05 23:46 50.07463 -117.97533 38962 ft 442 kts 66°
2026-05-05 23:46 50.09122 -117.88309 38967 ft 443 kts 66°
2026-05-05 23:47 50.10775 -117.79102 38972 ft 442 kts 66°
2026-05-05 23:47 50.12424 -117.69851 38975 ft 442 kts 66°
2026-05-05 23:48 50.14057 -117.60645 38986 ft 442 kts 66°
2026-05-05 23:48 50.15695 -117.51403 38991 ft 443 kts 66°
2026-05-05 23:49 50.17335 -117.42061 39001 ft 443 kts 66°
2026-05-05 23:49 50.18944 -117.32795 39010 ft 442 kts 66°
2026-05-05 23:50 50.20564 -117.23483 39003 ft 445 kts 66°
2026-05-05 23:50 50.22167 -117.14217 39017 ft 442 kts 66°
2026-05-05 23:51 50.23765 -117.04939 39032 ft 441 kts 66°
2026-05-05 23:51 50.25347 -116.95697 39046 ft 440 kts 66°
2026-05-05 23:52 50.26900 -116.86573 39058 ft 440 kts 66°
2026-05-05 23:52 50.28473 -116.77255 39061 ft 438 kts 66°
2026-05-05 23:53 50.30022 -116.68051 39071 ft 438 kts 66°
2026-05-05 23:53 50.31575 -116.58801 39085 ft 439 kts 66°
2026-05-05 23:54 50.33112 -116.49561 39092 ft 438 kts 66°
2026-05-05 23:54 50.34600 -116.40593 38794 ft 435 kts 66°
2026-05-05 23:55 50.35356 -116.36006 38080 ft 433 kts 66°
2026-05-05 23:55 50.36112 -116.31395 37716 ft 430 kts 65°
2026-05-05 23:55 50.36847 -116.26891 37453 ft 425 kts 66°
2026-05-05 23:55 50.37566 -116.22440 37173 ft 420 kts 66°
2026-05-05 23:56 50.38290 -116.17981 36803 ft 423 kts 65°
2026-05-05 23:56 50.39032 -116.13513 36342 ft 425 kts 64°
2026-05-05 23:56 50.39879 -116.09091 35874 ft 422 kts 62°
2026-05-05 23:56 50.40824 -116.04742 35410 ft 421 kts 60°
2026-05-05 23:57 50.41826 -116.00432 34891 ft 421 kts 59°
2026-05-05 23:57 50.42849 -115.96116 34333 ft 422 kts 59°
2026-05-05 23:57 50.43854 -115.91818 33712 ft 424 kts 59°
2026-05-05 23:57 50.44868 -115.87373 33046 ft 426 kts 60°
2026-05-05 23:58 50.45845 -115.82975 32412 ft 428 kts 60°
2026-05-05 23:58 50.46812 -115.78553 31769 ft 430 kts 61°
2026-05-05 23:58 50.47780 -115.74093 31151 ft 432 kts 61°
2026-05-05 23:58 50.48746 -115.69633 30550 ft 433 kts 61°
2026-05-05 23:59 50.49716 -115.65156 29938 ft 435 kts 62°
2026-05-05 23:59 50.50682 -115.60674 29256 ft 431 kts 62°
2026-05-05 23:59 50.51631 -115.56236 28604 ft 425 kts 62°
2026-05-05 23:59 50.52563 -115.51866 28079 ft 417 kts 62°
2026-05-06 00:00 50.53492 -115.47529 27591 ft 414 kts 62°
2026-05-06 00:00 50.54431 -115.43206 26885 ft 417 kts 62°
2026-05-06 00:00 50.55365 -115.38912 26230 ft 415 kts 62°
2026-05-06 00:00 50.56290 -115.34629 25540 ft 415 kts 62°
2026-05-06 00:01 50.57200 -115.30368 24882 ft 412 kts 63°
2026-05-06 00:01 50.58125 -115.26022 24196 ft 409 kts 64°
2026-05-06 00:01 50.59026 -115.21780 23516 ft 406 kts 63°
2026-05-06 00:01 50.59913 -115.17597 22850 ft 402 kts 64°
2026-05-06 00:02 50.60792 -115.13433 22270 ft 399 kts 63°
2026-05-06 00:02 50.61661 -115.09307 21684 ft 396 kts 64°
2026-05-06 00:02 50.62522 -115.05211 21184 ft 392 kts 63°
2026-05-06 00:02 50.63374 -115.01174 20664 ft 388 kts 63°
2026-05-06 00:03 50.64237 -114.97096 20140 ft 385 kts 63°
2026-05-06 00:03 50.65082 -114.93110 19580 ft 382 kts 63°
2026-05-06 00:03 50.65905 -114.89201 18980 ft 368 kts 63°
2026-05-06 00:03 50.66689 -114.85455 18389 ft 353 kts 63°
2026-05-06 00:04 50.67439 -114.81841 17724 ft 341 kts 63°
2026-05-06 00:04 50.68163 -114.78339 17075 ft 332 kts 63°
2026-05-06 00:04 50.68864 -114.74945 16582 ft 319 kts 63°
2026-05-06 00:04 50.69542 -114.71653 16156 ft 304 kts 63°
2026-05-06 00:05 50.71077 -114.65800 15312 ft 272 kts 49°
2026-05-06 00:05 50.72184 -114.63487 14888 ft 258 kts 39°
2026-05-06 00:05 50.73418 -114.61490 14496 ft 254 kts 38°
2026-05-06 00:06 50.74654 -114.59490 14092 ft 255 kts 38°
2026-05-06 00:06 50.75897 -114.57469 13661 ft 258 kts 39°
2026-05-06 00:06 50.77151 -114.55420 13222 ft 260 kts 39°
2026-05-06 00:06 50.78406 -114.53366 12788 ft 262 kts 40°
2026-05-06 00:07 50.79678 -114.51284 12362 ft 264 kts 40°
2026-05-06 00:07 50.80541 -114.49872 12079 ft 265 kts 41°
2026-05-06 00:07 50.81682 -114.48046 11726 ft 264 kts 40°
2026-05-06 00:07 50.82714 -114.46459 11433 ft 261 kts 39°
2026-05-06 00:08 50.84057 -114.44429 11034 ft 263 kts 40°
2026-05-06 00:08 50.85391 -114.42427 10658 ft 264 kts 40°
2026-05-06 00:08 50.86709 -114.40443 10281 ft 258 kts 40°
2026-05-06 00:08 50.88010 -114.38474 9876 ft 259 kts 41°
2026-05-06 00:09 50.88988 -114.36988 9589 ft 257 kts 41°
2026-05-06 00:09 50.90268 -114.35039 9380 ft 244 kts 41°
2026-05-06 00:09 50.91396 -114.33072 9050 ft 242 kts 52°
2026-05-06 00:09 50.92229 -114.30751 8740 ft 243 kts 65°
2026-05-06 00:10 50.92829 -114.28293 8428 ft 235 kts 66°
2026-05-06 00:10 50.93406 -114.25922 8121 ft 225 kts 66°
2026-05-06 00:10 50.93963 -114.23647 7817 ft 217 kts 66°
2026-05-06 00:10 50.94499 -114.21462 7519 ft 209 kts 66°
2026-05-06 00:11 50.95016 -114.19351 7220 ft 202 kts 66°
2026-05-06 00:11 50.95524 -114.17275 6925 ft 198 kts 67°
2026-05-06 00:11 50.96015 -114.15259 6676 ft 195 kts 68°
2026-05-06 00:11 50.96499 -114.13266 6369 ft 192 kts 68°
2026-05-06 00:12 50.96976 -114.11298 6188 ft 190 kts 68°
2026-05-06 00:12 50.97460 -114.09320 6045 ft 189 kts 66°
2026-05-06 00:12 50.98067 -114.07488 5821 ft 186 kts 56°
2026-05-06 00:12 50.98818 -114.05943 5649 ft 168 kts 47°
2026-05-06 00:13 50.99619 -114.04739 5483 ft 150 kts 42°
2026-05-06 00:13 51.00358 -114.03634 5323 ft 143 kts 31°
2026-05-06 00:13 51.01231 -114.02959 5168 ft 139 kts 25°
2026-05-06 00:13 51.02111 -114.02322 5008 ft 137 kts 20°
2026-05-06 00:14 51.03057 -114.02148 4835 ft 138 kts
2026-05-06 00:14 51.04009 -114.02149 4645 ft 137 kts
2026-05-06 00:14 51.04963 -114.02145 4439 ft 137 kts
2026-05-06 00:14 51.05918 -114.02141 4254 ft 138 kts
2026-05-06 00:15 51.06879 -114.02138 4109 ft 138 kts
2026-05-06 00:15 51.07840 -114.02149 3946 ft 138 kts
2026-05-06 00:15 51.08799 -114.02150 3784 ft 137 kts
2026-05-06 00:15 51.09753 -114.02136 3614 ft 136 kts 360°
2026-05-06 00:16 51.10671 -114.02138 3558 ft 113 kts
2026-05-06 00:16 51.11272 -114.02134 3562 ft 63 kts
2026-05-06 00:16 51.11553 -114.02131 3561 ft 23 kts 360°
2026-05-06 00:16 51.11762 -114.02131 3565 ft 40 kts
2026-05-06 00:17 51.12022 -114.02137 3566 ft 31 kts
2026-05-06 00:17 51.12223 -114.02129 3564 ft 27 kts
2026-05-06 00:17 51.12381 -114.02001 3560 ft 19 kts 32°
2026-05-06 00:17 51.12471 -114.01916 3563 ft 8 kts 28°
2026-05-06 00:18 51.12482 -114.01906 3561 ft 0 kts 29°
2026-05-06 00:18 51.12501 -114.01889 3564 ft 11 kts 31°
2026-05-06 00:19 51.12595 -114.01807 3563 ft 17 kts 20°
2026-05-06 00:19 51.12714 -114.01793 3561 ft 18 kts 360°
2026-05-06 00:19 51.12835 -114.01795 3559 ft 14 kts
2026-05-06 00:19 51.12894 -114.01699 3566 ft 15 kts 88°
2026-05-06 00:20 51.12889 -114.01526 3566 ft 17 kts 108°
2026-05-06 00:20 51.12819 -114.01372 3561 ft 17 kts 131°
2026-05-06 00:20 51.12774 -114.01230 3566 ft 14 kts 79°
2026-05-06 00:20 51.12843 -114.01116 3559 ft 15 kts 40°
2026-05-06 00:21 51.12911 -114.01031 3564 ft 12 kts 31°
2026-05-06 00:21 51.12948 -114.00974 3562 ft 5 kts 81°
2026-05-06 00:21 51.12948 -114.00946 3566 ft 2 kts 94°
2026-05-06 00:21 51.12947 -114.00927 3566 ft 2 kts 97°
2026-05-06 00:22 51.12946 -114.00915 3566 ft 1 kts 97°
2026-05-06 00:22 51.12945 -114.00912 3566 ft 0 kts 97°